COSMOS 2190

Satellite information

Favourite Embed

Satellite Type and Status

PAYLOADIN ORBIT

Key statistics

Satellite COSMOS 2190 at a glance.

Uptime

12088

Days in orbit

Revolutions

≈ 12.5

Per day

Orbit

LEO

Low Earth Orbit

Inclination

74.0

Latest

Satellite identification and parameters

Extended collection of information and parameters for COSMOS 2190.

Object identification

Identified? True

Debris? False

Object name: COSMOS 2190

International designator: 1992-030D

Object number (NORAD): 21979

Object ID (CCSDS): 21979

Country: COMMONWEALTH OF INDEPENDENT STATES (CIS)

Current information (Y/N): Y

RCS size: MEDIUM

Orbital parameters

Period: 114.99 minutes

Inclination: 74.0053 deg

SMA: 7833.115 km

Apoapsis: 1480.003 km

Periapsis: 1429.958 km

RAAN: 317.0935 deg

Eccentricy: 0.0031944

Argument of periapsis: 265.4084 deg

Mean anomaly: 263.2466 deg

Mean motion: 12.52278622 rev/day

Mean motion (dot): -0.00000019 rev/day2

B* drag term: -0.000018915 1/REarth

Two-line elements (TLE)

Creation date: July 8, 2025, 2:27 a.m.

Reference frame: TEME

Reference center: EARTH

Epoch: July 7, 2025, 7:08 p.m. UTC

TLE line 0: 0 COSMOS 2190

TLE line 1: 1 21979U 92030D 25188.79748185 -.00000019 00000-0 -18915-4 0 9995

TLE line 2: 2 21979 74.0053 317.0935 0031944 265.4084 263.2466 12.52278622512832

Live tracking on map

Real-time ground track for satellite COSMOS 2190.

In-orbit conjunctions

There are no conjunctions computed for COSMOS 2190, at the moment. Check back to stay up to date, as we update our databases every day.

Go to all conjunctions

Associated space launch

Military communications satellites

COSMOS 2190 was lifted into orbit during the mission ‘Kosmos-3M | Strela-1M 361-368’, on board a Kosmos-3M space rocket.

The launch took place on June 3, 1992, 12:50 a.m. from 133/3 (133L).

For more information about the launch, click the button.

Launch to space Kosmos-3M | Strela-1M 361-368
Kosmos-3M | Strela-1M 361-368

Agency: N/A

Status: Launch Successful

Launch date: June 3, 1992, 12:50 a.m. UTC

Rocket: Kosmos-3M

Launch pad: 133/3 (133L)

Location: Plesetsk Cosmodrome, Russian Federation

...

Latest news about this satellite

There are no fresh news available about this satellite. Check back as we update our databases every day.


Newsletter sign-up

Weekly statistics, charts and insights to help you stay on top of the space industry.